Time,TemperatureF,DewpointF,PressureIn,WindDirection,WindDirectionDegrees,WindSpeedMPH,WindSpeedGustMPH,Humidity,HourlyPrecipIn,Conditions,Clouds,dailyrainin,SoftwareType,DateUTC
2013-08-23 00:11:00,84.0,45.0,29.89,SSW,205,15.0,22.0,26,0.00,,,0.00,,2013-08-23 07:11:00,
2013-08-23 00:21:00,84.0,44.0,29.88,South,190,18.0,26.0,25,0.00,,,0.00,,2013-08-23 07:21:00,
2013-08-23 00:52:00,84.0,45.0,29.88,SSW,192,17.0,23.0,26,0.00,,,0.00,,2013-08-23 07:52:00,
2013-08-23 01:12:00,84.0,45.0,29.88,SSW,192,18.0,24.0,26,0.00,,,0.00,,2013-08-23 08:12:00,
2013-08-23 01:22:00,84.0,45.0,29.88,South,187,15.0,21.0,26,0.00,,,0.00,,2013-08-23 08:22:00,
2013-08-23 01:52:00,84.0,43.0,29.88,South,188,14.0,19.0,24,0.00,,,0.00,,2013-08-23 08:52:00,
2013-08-23 02:11:00,84.0,43.0,29.88,SSW,196,18.0,23.0,24,0.00,,,0.00,,2013-08-23 09:11:00,
2013-08-23 02:21:00,83.0,45.0,29.87,South,180,16.0,21.0,26,0.00,,,0.00,,2013-08-23 09:21:00,
2013-08-23 02:53:00,82.0,44.0,29.87,South,189,21.0,25.0,26,0.00,,,0.00,,2013-08-23 09:53:00,
2013-08-23 03:13:00,81.0,43.0,29.87,South,186,17.0,23.0,26,0.00,,,0.00,,2013-08-23 10:13:00,
2013-08-23 03:22:00,81.0,43.0,29.87,South,172,15.0,21.0,26,0.00,,,0.00,,2013-08-23 10:22:00,
2013-08-23 03:52:00,81.0,43.0,29.88,South,175,15.0,19.0,26,0.00,,,0.00,,2013-08-23 10:52:00,
2013-08-23 04:11:00,80.0,43.0,29.88,SSE,161,13.0,18.0,27,0.00,,,0.00,,2013-08-23 11:11:00,
2013-08-23 04:22:00,79.0,43.0,29.88,South,178,15.0,18.0,28,0.00,,,0.00,,2013-08-23 11:22:00,
2013-08-23 04:53:00,79.0,43.0,29.88,South,183,15.0,19.0,28,0.00,,,0.00,,2013-08-23 11:53:00,
2013-08-23 05:11:00,80.0,43.0,29.88,South,180,17.0,22.0,27,0.00,,,0.00,,2013-08-23 12:11:00,
2013-08-23 05:22:00,80.0,43.0,29.88,South,184,15.0,21.0,27,0.00,,,0.00,,2013-08-23 12:22:00,
2013-08-23 05:42:00,80.0,43.0,29.88,South,184,12.0,18.0,27,0.00,,,0.00,,2013-08-23 12:42:00,
2013-08-23 05:52:00,77.0,43.0,29.89,WSW,242,7.0,16.0,30,0.00,,,0.00,,2013-08-23 12:52:00,
2013-08-23 06:22:00,79.0,45.0,29.89,SW,219,8.0,17.0,30,0.00,,,0.00,,2013-08-23 13:22:00,
2013-08-23 06:41:00,78.0,43.0,29.89,SSW,194,10.0,15.0,29,0.00,,,0.00,,2013-08-23 13:41:00,
2013-08-23 06:52:00,79.0,43.0,29.89,SW,219,5.0,15.0,28,0.00,,,0.00,,2013-08-23 13:52:00,
2013-08-23 07:11:00,79.0,43.0,29.90,South,188,1.0,15.0,28,0.00,,,0.00,,2013-08-23 14:11:00,
2013-08-23 07:21:00,74.0,44.0,29.91,ENE,63,0.0,4.0,34,0.00,,,0.00,,2013-08-23 14:21:00,
2013-08-23 07:32:00,74.0,44.0,29.91,ENE,63,0.0,4.0,34,0.00,,,0.00,,2013-08-23 14:32:00,
2013-08-23 07:52:00,75.0,45.0,29.92,SE,144,0.0,2.0,34,0.00,,,0.00,,2013-08-23 14:52:00,
2013-08-23 08:11:00,75.0,45.0,29.92,SE,144,0.0,3.0,35,0.00,,,0.00,,2013-08-23 15:11:00,
2013-08-23 08:22:00,77.0,46.0,29.92,SSE,148,1.0,5.0,33,0.00,,,0.00,,2013-08-23 15:22:00,
2013-08-23 08:54:00,81.0,45.0,29.92,SSE,148,0.0,0.0,28,0.00,,,0.00,,2013-08-23 15:54:00,
2013-08-23 09:13:00,82.0,45.0,29.92,SSE,148,0.0,2.0,27,0.00,,,0.00,,2013-08-23 16:13:00,
2013-08-23 09:24:00,84.0,45.0,29.91,SSE,148,0.0,3.0,26,0.00,,,0.00,,2013-08-23 16:24:00,
2013-08-23 09:42:00,85.0,43.0,29.91,SW,234,1.0,3.0,23,0.00,,,0.00,,2013-08-23 16:42:00,
2013-08-23 09:53:00,87.0,42.0,29.91,SSW,210,6.0,9.0,21,0.00,,,0.00,,2013-08-23 16:53:00,
2013-08-23 10:12:00,87.0,41.0,29.91,SW,229,7.0,12.0,20,0.00,,,0.00,,2013-08-23 17:12:00,
2013-08-23 10:23:00,89.0,37.0,29.92,South,171,6.0,14.0,16,0.00,,,0.00,,2013-08-23 17:23:00,
2013-08-23 10:42:00,91.0,33.0,29.91,South,183,13.0,17.0,13,0.00,,,0.00,,2013-08-23 17:42:00,
2013-08-23 10:53:00,91.0,31.0,29.91,South,176,16.0,22.0,12,0.00,,,0.00,,2013-08-23 17:53:00,
2013-08-23 11:12:00,92.0,32.0,29.91,SSW,192,16.0,20.0,12,0.00,,,0.00,,2013-08-23 18:12:00,
2013-08-23 11:22:00,93.0,33.0,29.91,SSW,198,15.0,21.0,12,0.00,,,0.00,,2013-08-23 18:22:00,
2013-08-23 21:24:00,85.0,44.0,29.79,SSW,206,16.0,23.0,24,0.00,,,0.00,,2013-08-24 04:24:00,
2013-08-23 21:44:00,85.0,45.0,29.80,SSW,198,12.0,21.0,25,0.00,,,0.00,,2013-08-24 04:44:00,
2013-08-23 21:53:00,84.0,44.0,29.80,SSW,195,15.0,20.0,25,0.00,,,0.00,,2013-08-24 04:53:00,
2013-08-23 22:23:00,82.0,45.0,29.81,SSW,207,9.0,19.0,27,0.00,,,0.00,,2013-08-24 05:23:00,
2013-08-23 22:43:00,82.0,45.0,29.81,South,189,17.0,21.0,27,0.00,,,0.00,,2013-08-24 05:43:00,
2013-08-23 22:53:00,82.0,44.0,29.81,South,188,13.0,21.0,26,0.00,,,0.00,,2013-08-24 05:53:00,
2013-08-23 23:12:00,82.0,45.0,29.82,South,188,14.0,19.0,27,0.00,,,0.00,,2013-08-24 06:12:00,
2013-08-23 23:21:00,81.0,44.0,29.82,South,185,13.0,19.0,27,0.00,,,0.00,,2013-08-24 06:21:00,
2013-08-23 23:42:00,81.0,44.0,29.83,SSW,196,14.0,18.0,27,0.00,,,0.00,,2013-08-24 06:42:00,
2013-08-23 23:52:00,81.0,43.0,29.83,SSW,209,14.0,20.0,26,0.00,,,0.00,,2013-08-24 06:52:00,